TimeMST,TemperatureF,Dew PointF,Humidity,Sea Level PressureIn,VisibilityMPH,Wind Direction,Wind SpeedMPH,Gust SpeedMPH,PrecipitationIn,Events,Conditions,WindDirDegrees,DateUTC
12:53 AM,28.0,17.1,63,30.19,10.0,SSW,8.1,-,N/A,,Clear,210,2012-11-14 07:53:00
1:53 AM,28.9,17.1,61,30.18,10.0,SW,18.4,-,N/A,,Clear,220,2012-11-14 08:53:00
2:53 AM,30.0,17.1,59,30.17,10.0,WSW,12.7,-,N/A,,Clear,240,2012-11-14 09:53:00
3:53 AM,30.0,16.0,56,30.17,10.0,SW,13.8,-,N/A,,Clear,230,2012-11-14 10:53:00
4:53 AM,30.0,16.0,56,30.21,10.0,SW,17.3,-,N/A,,Clear,230,2012-11-14 11:53:00
5:53 AM,33.1,16.0,50,30.22,10.0,SW,11.5,-,N/A,,Scattered Clouds,220,2012-11-14 12:53:00
6:53 AM,34.0,15.1,46,30.21,10.0,SE,6.9,-,N/A,,Overcast,140,2012-11-14 13:53:00
7:53 AM,34.0,16.0,48,30.22,10.0,South,10.4,-,N/A,,Scattered Clouds,180,2012-11-14 14:53:00
8:53 AM,37.0,16.0,42,30.19,10.0,SW,16.1,-,N/A,,Clear,220,2012-11-14 15:53:00
9:53 AM,43.0,16.0,34,30.16,10.0,WSW,23.0,-,N/A,,Clear,240,2012-11-14 16:53:00
10:53 AM,44.1,16.0,32,30.11,10.0,WSW,23.0,29.9,N/A,,Scattered Clouds,240,2012-11-14 17:53:00
11:53 AM,46.9,15.1,28,30.07,10.0,SW,21.9,32.2,N/A,,Overcast,230,2012-11-14 18:53:00
12:53 PM,48.9,15.1,26,30.04,10.0,WSW,13.8,21.9,N/A,,Scattered Clouds,250,2012-11-14 19:53:00
1:53 PM,46.0,12.0,25,30.03,10.0,West,29.9,35.7,N/A,,Scattered Clouds,260,2012-11-14 20:53:00
2:53 PM,44.1,17.1,34,30.05,10.0,West,29.9,35.7,N/A,,Scattered Clouds,260,2012-11-14 21:53:00
3:53 PM,42.1,19.9,41,30.09,10.0,WSW,21.9,27.6,N/A,,Overcast,250,2012-11-14 22:53:00
4:53 PM,36.0,24.1,62,30.14,10.0,WSW,18.4,-,N/A,,Scattered Clouds,240,2012-11-14 23:53:00
5:53 PM,37.0,23.0,57,30.12,10.0,WSW,13.8,-,N/A,,Clear,240,2012-11-15 00:53:00
6:53 PM,36.0,23.0,59,30.13,10.0,SW,12.7,-,N/A,,Overcast,230,2012-11-15 01:53:00
7:53 PM,36.0,23.0,59,30.14,10.0,SW,6.9,-,N/A,,Overcast,230,2012-11-15 02:53:00
8:53 PM,34.0,25.0,70,30.14,10.0,WSW,8.1,-,N/A,,Overcast,250,2012-11-15 03:53:00
9:53 PM,36.0,25.0,64,30.09,10.0,WSW,12.7,-,N/A,,Scattered Clouds,250,2012-11-15 04:53:00
10:53 PM,32.0,27.0,82,30.13,10.0,Variable,6.9,-,N/A,,Mostly Cloudy,0,2012-11-15 05:53:00
11:50 PM,30.2,26.6,86,30.22,10.0,East,5.8,-,N/A,,Overcast,90,2012-11-15 06:50:00
11:53 PM,32.0,28.0,85,30.13,10.0,Variable,3.5,-,N/A,,Overcast,0,2012-11-15 06:53:00